Location: North Evanston
(42.0634°N, 87.6976°W)
Time: 19:49:30
(UTC+00:00)

Vanguard 3 - Pass Details

Date: 17 May 2026
Orbit: 507 x 3205 km, 33.4° (Epoch: 31 May)

Event Time Altitude Azimuth Distance (km) Brightness Sun altitude
Rises 23:50:04 0° 277° (W) 7,153 14.0 12.3°
Reaches altitude 10° 23:55:19 10° 273° (W) 6,054 13.7 11.3°
Maximum altitude 00:12:04 45° 209° (SSW) 3,169 10.4 8.4°
Drops below altitude 10° 00:23:22 10° 141° (SE) 4,159 10.3 6.4°
Sets 00:26:16 0° 135° (SE) 4,827 10.5 5.9°
